TimeEST,TemperatureF,Dew PointF,Humidity,Sea Level PressureIn,VisibilityMPH,Wind Direction,Wind SpeedMPH,Gust SpeedMPH,PrecipitationIn,Events,Conditions,WindDirDegrees,DateUTC
12:15 AM,37.4,35.6,93,29.81,0.2,North,3.5,-,N/A,Fog,Fog,350,2013-02-24 05:15:00
12:35 AM,37.4,35.6,93,29.82,0.2,North,3.5,-,N/A,Fog,Fog,350,2013-02-24 05:35:00
12:55 AM,37.4,37.4,100,29.82,0.2,Calm,Calm,-,N/A,Fog,Fog,0,2013-02-24 05:55:00
1:15 AM,37.4,37.4,100,29.83,0.2,Calm,Calm,-,N/A,Fog,Fog,0,2013-02-24 06:15:00
1:35 AM,37.4,37.4,100,29.83,0.2,Calm,Calm,-,N/A,Fog,Fog,0,2013-02-24 06:35:00
1:55 AM,37.4,35.6,93,29.84,0.2,North,3.5,-,N/A,Fog,Fog,350,2013-02-24 06:55:00
2:15 AM,37.4,35.6,93,29.83,0.2,Calm,Calm,-,N/A,Fog,Fog,0,2013-02-24 07:15:00
2:35 AM,37.4,35.6,93,29.82,0.2,Calm,Calm,-,N/A,Fog,Fog,0,2013-02-24 07:35:00
2:55 AM,37.4,37.4,100,29.81,0.2,Calm,Calm,-,N/A,Fog,Fog,0,2013-02-24 07:55:00
3:15 AM,37.4,35.6,93,29.80,0.2,Calm,Calm,-,N/A,Fog,Fog,0,2013-02-24 08:15:00
3:35 AM,37.4,35.6,93,29.80,0.2,Calm,Calm,-,N/A,Fog,Fog,0,2013-02-24 08:35:00
3:55 AM,37.4,35.6,93,29.78,0.2,Calm,Calm,-,N/A,Fog,Fog,0,2013-02-24 08:55:00
4:15 AM,37.4,35.6,93,29.79,0.2,NNW,3.5,-,N/A,Fog,Fog,340,2013-02-24 09:15:00
4:55 AM,37.4,37.4,100,29.80,0.2,Calm,Calm,-,N/A,Fog,Fog,0,2013-02-24 09:55:00
5:15 AM,37.4,37.4,100,29.81,0.2,NW,3.5,-,N/A,Fog,Fog,310,2013-02-24 10:15:00
5:35 AM,37.4,35.6,93,29.82,0.2,WNW,3.5,-,N/A,Fog,Fog,290,2013-02-24 10:35:00
5:55 AM,37.4,35.6,93,29.83,0.2,NW,6.9,-,N/A,Fog,Fog,320,2013-02-24 10:55:00
6:15 AM,37.4,37.4,100,29.83,0.2,NW,6.9,-,N/A,Fog,Fog,310,2013-02-24 11:15:00
6:35 AM,37.4,35.6,93,29.83,0.2,NW,5.8,-,N/A,Fog,Fog,320,2013-02-24 11:35:00
6:55 AM,37.4,35.6,93,29.83,0.2,NW,6.9,-,N/A,Fog,Fog,320,2013-02-24 11:55:00
7:15 AM,37.4,35.6,93,29.83,0.2,NW,3.5,-,N/A,Fog,Fog,320,2013-02-24 12:15:00
7:35 AM,35.6,35.6,100,29.84,0.5,Calm,Calm,-,N/A,Fog,Fog,0,2013-02-24 12:35:00
7:55 AM,35.6,35.6,100,29.84,0.2,Calm,Calm,-,N/A,Fog,Fog,0,2013-02-24 12:55:00
8:15 AM,37.4,35.6,93,29.84,2.5,Calm,Calm,-,N/A,,Scattered Clouds,0,2013-02-24 13:15:00
8:35 AM,37.4,37.4,100,29.84,7.0,NW,4.6,-,N/A,,Clear,320,2013-02-24 13:35:00
8:55 AM,39.2,37.4,93,29.85,10.0,NW,10.4,-,N/A,,Clear,320,2013-02-24 13:55:00
9:15 AM,39.2,37.4,93,29.86,10.0,WNW,10.4,-,N/A,,Clear,300,2013-02-24 14:15:00
9:35 AM,41.0,37.4,87,29.86,10.0,NW,13.8,20.7,N/A,,Clear,310,2013-02-24 14:35:00
9:55 AM,41.0,33.8,76,29.87,10.0,WNW,12.7,19.6,N/A,,Clear,290,2013-02-24 14:55:00
10:15 AM,41.0,33.8,76,29.87,10.0,NNW,4.6,-,N/A,,Mostly Cloudy,330,2013-02-24 15:15:00
10:35 AM,41.0,30.2,65,29.88,10.0,NW,9.2,-,N/A,,Scattered Clouds,310,2013-02-24 15:35:00
10:55 AM,42.8,30.2,61,29.89,10.0,WNW,12.7,19.6,N/A,,Scattered Clouds,300,2013-02-24 15:55:00
11:15 AM,42.8,28.4,57,29.89,10.0,WNW,12.7,20.7,N/A,,Mostly Cloudy,290,2013-02-24 16:15:00
11:35 AM,42.8,28.4,57,29.88,10.0,WNW,11.5,21.9,N/A,,Mostly Cloudy,300,2013-02-24 16:35:00
11:55 AM,42.8,26.6,53,29.89,10.0,WNW,11.5,16.1,N/A,,Scattered Clouds,290,2013-02-24 16:55:00
12:15 PM,42.8,24.8,49,29.89,10.0,WNW,16.1,24.2,N/A,,Scattered Clouds,290,2013-02-24 17:15:00
12:35 PM,42.8,24.8,49,29.88,10.0,West,15.0,20.7,N/A,,Scattered Clouds,280,2013-02-24 17:35:00
12:55 PM,44.6,24.8,46,29.87,10.0,West,18.4,24.2,N/A,,Scattered Clouds,270,2013-02-24 17:55:00
1:15 PM,44.6,24.8,46,29.87,10.0,WNW,17.3,24.2,N/A,,Clear,290,2013-02-24 18:15:00
1:35 PM,42.8,23.0,46,29.87,10.0,WNW,12.7,24.2,N/A,,Scattered Clouds,290,2013-02-24 18:35:00
1:55 PM,44.6,23.0,43,29.87,10.0,West,20.7,26.5,N/A,,Mostly Cloudy,280,2013-02-24 18:55:00
2:15 PM,42.8,24.8,49,29.88,10.0,NW,11.5,20.7,N/A,,Mostly Cloudy,310,2013-02-24 19:15:00
2:35 PM,42.8,24.8,49,29.88,10.0,NNW,12.7,20.7,N/A,,Overcast,330,2013-02-24 19:35:00
2:55 PM,42.8,24.8,49,29.89,10.0,NW,11.5,23.0,N/A,,Mostly Cloudy,310,2013-02-24 19:55:00
3:15 PM,39.2,23.0,52,29.91,10.0,NNW,12.7,20.7,N/A,,Overcast,340,2013-02-24 20:15:00
3:35 PM,39.2,21.2,49,29.92,10.0,NW,17.3,24.2,N/A,,Overcast,320,2013-02-24 20:35:00
3:55 PM,39.2,23.0,52,29.93,10.0,WNW,17.3,23.0,N/A,,Overcast,300,2013-02-24 20:55:00
4:15 PM,39.2,21.2,49,29.94,10.0,WNW,19.6,24.2,N/A,,Overcast,300,2013-02-24 21:15:00
4:35 PM,37.4,21.2,52,29.95,10.0,WNW,16.1,24.2,N/A,,Overcast,300,2013-02-24 21:35:00
4:55 PM,37.4,21.2,52,29.95,10.0,WNW,13.8,23.0,N/A,,Overcast,300,2013-02-24 21:55:00
5:15 PM,37.4,21.2,52,29.97,10.0,WNW,15.0,24.2,N/A,,Overcast,300,2013-02-24 22:15:00
5:35 PM,35.6,23.0,60,29.98,10.0,WNW,16.1,27.6,N/A,,Mostly Cloudy,300,2013-02-24 22:35:00
5:55 PM,35.6,21.2,56,29.99,10.0,WNW,9.2,18.4,N/A,,Scattered Clouds,300,2013-02-24 22:55:00
6:15 PM,33.8,21.2,60,30.00,10.0,WNW,11.5,24.2,N/A,,Overcast,290,2013-02-24 23:15:00
6:35 PM,33.8,21.2,60,30.01,10.0,WNW,11.5,20.7,N/A,,Overcast,290,2013-02-24 23:35:00
6:55 PM,33.8,23.0,65,30.02,10.0,NW,11.5,17.3,N/A,,Overcast,310,2013-02-24 23:55:00
7:15 PM,33.8,21.2,60,30.03,10.0,NW,10.4,20.7,N/A,,Overcast,320,2013-02-25 00:15:00
7:35 PM,33.8,21.2,60,30.04,10.0,WNW,9.2,16.1,N/A,,Mostly Cloudy,300,2013-02-25 00:35:00
7:55 PM,32.0,21.2,64,30.05,10.0,WNW,11.5,19.6,N/A,,Scattered Clouds,300,2013-02-25 00:55:00
8:15 PM,32.0,21.2,64,30.05,10.0,WNW,8.1,18.4,N/A,,Clear,290,2013-02-25 01:15:00
8:35 PM,32.0,21.2,64,30.06,10.0,WNW,11.5,16.1,N/A,,Clear,290,2013-02-25 01:35:00
9:00 PM,30.2,21.2,69,30.07,10.0,West,8.1,-,N/A,,Clear,280,2013-02-25 02:00:00
9:20 PM,30.2,21.2,69,30.07,10.0,WNW,9.2,-,N/A,,Clear,290,2013-02-25 02:20:00
9:40 PM,30.2,21.2,69,30.07,10.0,WNW,8.1,-,N/A,,Clear,300,2013-02-25 02:40:00
10:00 PM,30.2,21.2,69,30.08,10.0,WNW,8.1,-,N/A,,Clear,290,2013-02-25 03:00:00
10:20 PM,30.2,21.2,69,30.08,10.0,WNW,9.2,-,N/A,,Clear,290,2013-02-25 03:20:00
10:40 PM,30.2,21.2,69,30.08,10.0,WNW,6.9,-,N/A,,Clear,290,2013-02-25 03:40:00
11:00 PM,28.4,21.2,74,30.08,10.0,West,8.1,-,N/A,,Scattered Clouds,280,2013-02-25 04:00:00
11:20 PM,30.2,21.2,69,30.08,10.0,West,8.1,-,N/A,,Clear,280,2013-02-25 04:20:00
11:40 PM,28.4,19.4,69,30.08,10.0,West,8.1,-,N/A,,Scattered Clouds,280,2013-02-25 04:40:00